Regional Weather Roundup
Issued by NWS

Home | Current Version | Previous Version | Graphics & Text | Print | Product List | Glossary On
Versions: 1 2 3 4 5 6 7 8 9 10 11 12 13 14 15 16 17 18 19 20 21 22 23 24 25 26 27 28 29 30 31 32 33 34 35 36 37 38 39 40 41 42 43 44 45 46 47 48 49 50
000
ASUS45 KPSR 241510
RWRAZ

ARIZONA HOURLY REGIONAL WEATHER ROUNDUP
NATIONAL WEATHER SERVICE PHOENIX AZ
800 AM MST SUN JUL 24 2016

NOTE: FAIR INDICATES FEW OR NO CLOUDS BELOW 12,000 FEET WITH NO
SIGNIFICANT WEATHER AND/OR OBSTRUCTIONS TO VISIBILITY.

AZZ001>003-036-241600-
NORTHWEST ARIZONA

CITY           SKY/WX    TMP DP  RH WIND       PRES   REMARKS
BULLHEAD CITY  SUNNY     93  59  31 SW9       29.82R
KINGMAN        SUNNY     89  51  27 CALM      30.03R
$$

AZZ004>008-015-016-018-241600-
NORTH CENTRAL ARIZONA

CITY           SKY/WX    TMP DP  RH WIND       PRES   REMARKS
GRAND CANYON   MOSUNNY   77  49  37 VRB3      30.30R
WILLIAMS       SUNNY     77  50  38 CALM      30.38R
PRESCOTT       SUNNY     82  56  40 S7        30.19R
FLAGSTAFF      MOSUNNY   73  52  47 NW3       30.32R
PAYSON         SUNNY     81  52  36 S7        30.24R
PAGE           SUNNY     88  39  17 E3        30.06R
$$

AZZ009>014-017-241600-
NORTHEAST ARIZONA

CITY           SKY/WX    TMP DP  RH WIND       PRES   REMARKS
WINSLOW        PTSUNNY   75  46  35 SE5       30.17R
SAINT JOHNS    MOSUNNY   77  47  34 CALM      30.21R
WINDOW ROCK    MOSUNNY   76  48  37 CALM      30.30R
SHOW LOW       MOSUNNY   73  48  40 S12       30.29R
$$

AZZ023-241600-
GREATER PHOENIX AREA

CITY           SKY/WX    TMP DP  RH WIND       PRES   REMARKS
PHOENIX        MOSUNNY   92  58  31 VRB6      29.93R
BUCKEYE        SUNNY     91  59  33 SW13      29.96R
GLENDALE       MOSUNNY   93  57  29 SW14      29.95R
LUKE AFB       SUNNY     92  60  33 SW16      29.94R
DEER VALLEY    SUNNY     91  55  29 W10       29.96R
SCOTTSDALE     SUNNY     91  56  30 E5        29.99R
MESA-FALCON    MOSUNNY  N/A N/A N/A S10G20    29.94R
MESA-GATEWAY   MOSUNNY   90  63  40 SW14G23   29.98R
CHANDLER       MOSUNNY   90  61  37 S21       29.96R
$$

AZZ027-028-241600-
SOUTHWEST MARICOPA COUNTY AND PINAL COUNTY

CITY           SKY/WX    TMP DP  RH WIND       PRES   REMARKS
CASA GRANDE    MOSUNNY   90  63  40 S17G29    29.98R
GILA BEND      FAIR      92  61  34 S20       29.92R
$$

AZZ503-504-507>509-241600-
SOUTHEAST ARIZONA

CITY           SKY/WX    TMP DP  RH WIND       PRES   REMARKS
TUCSON         PTSUNNY   83  62  49 NE5       30.07R
DAVIS-MONTHAN  MOSUNNY   82  62  51 SE5       30.06S
RYAN FIELD     SUNNY     86  61  42 SW10      30.04
NOGALES        PTSUNNY   77  62  59 CALM      30.13S
SIERRA VISTA   PTSUNNY   77  62  58 NW7       30.19R
DOUGLAS        SUNNY     77  61  57 S7        30.14R
SAFFORD        SUNNY     89  57  33 NW16      30.01R
$$

AZZ020-021-025-026-031-241600-
SOUTHWEST ARIZONA

CITY           SKY/WX    TMP DP  RH WIND       PRES   REMARKS
YUMA           PTSUNNY   91  72  53 S32G39    29.85R
$$

CAZ031-033-041-043-047-048-061-241600-
SOUTHERN CALIFORNIA

CITY           SKY/WX    TMP DP  RH WIND       PRES   REMARKS
DOWNTOWN L.A.  SUNNY     75  66  73 CALM      29.86S
L.A. AIRPORT   MOSUNNY   73  66  78 SE5       29.88R
SAN DIEGO      PTSUNNY   65  65 100 S7        29.92R
BURBANK        SUNNY     76  48  37 CALM      29.89R
ONTARIO        MOSUNNY   78  57  48 S3        29.89R
RIVERSIDE      SUNNY     77  58  51 CALM      29.89R
PALM SPRINGS   SUNNY     90  56  31 E8        29.87R
EL CENTRO NAS  LGT RAIN  89  73  59 SE18      29.83R
IMPERIAL       MOSUNNY   91  75  59 SE25G31   29.81R HX 101
BLYTHE         MOSUNNY   92  68  45 S24G30    29.86R
NEEDLES        SUNNY     98  60  28 SE3       29.84R
$$

NVZ020-UTZ003-241600-
SOUTHERN NEVADA-UTAH

CITY           SKY/WX    TMP DP  RH WIND       PRES   REMARKS
LAS VEGAS      SUNNY     92  40  16 W5        29.84R
SALT LAKE CITY MOSUNNY   75  35  23 CALM      30.12R
$$

NMZ009-TXZ055-241600-
NEW MEXICO-WEST TEXAS

CITY           SKY/WX    TMP DP  RH WIND       PRES   REMARKS
ALBUQUERQUE    CLOUDY    81  51  35 NW8       30.18R
EL PASO        MOSUNNY   86  48  26 N3        30.03R
$$


........................KEY........................
SKY/WX - SKY CONDITION/WEATHER
TMP    - TEMPERATURE IN FAHRENHEIT
DP     - DEW POINT IN FAHRENHEIT
RH     - RELATIVE HUMIDITY IN PERCENT
WIND   - DIRECTION AND SPEED IN MILES PER HOUR (MPH)
VRB    - VARIABLE WIND DIRECTION
PRES   - MEAN SEA LEVEL PRESSURE IN INCHES OF MERCURY
         F - FALLING PRESSURE   R - RISING PRESSURE
         S - STEADY PRESSURE
VSB    - VISIBILITY IN MILES
HX     - HEAT INDEX IN FAHRENHEIT
WCI    - WIND CHILL INDEX IN FAHRENHEIT
TC     - TEMPERATURE IN CELSIUS WHICH IS ALSO KNOWN AS
         TEMPERATURE IN CENTIGRADE
AFB    - AIR FORCE BASE
         LUKE AFB IS LUKE AIR FORCE BASE
         DAVIS-MONTHAN IS DAVIS-MONTHAN AIR FORCE BASE
NAS    - NAVAL AIR STATION
         EL CENTRO NAS IS EL CENTRO NAVAL AIR STATION
N/A    - NOT AVAILABLE




USA.gov is the U.S. government's official web portal to all federal, state and local government web resources and services.